Regional Weather Roundup
Issued by NWS

Home | Current Version | Previous Version | Graphics & Text | Print | Product List | Glossary On
Versions: 1 2 3 4 5 6 7 8 9 10 11 12 13 14 15 16 17 18 19 20 21 22 23 24 25 26 27 28 29 30 31 32 33 34 35 36 37 38 39 40 41 42 43 44 45 46 47 48 49 50
000
ASUS45 KTFX 250019
RWRMT
MONTANA HOURLY WEATHER ROUNDUP
NATIONAL WEATHER SERVICE GREAT FALLS MT
519 PM MST WED DEC 24 2014

NOTE: "FAIR" INDICATES FEW OR NO CLOUDS BELOW 12000 FEET WITH NO
SIGNIFICANT WEATHER AND/OR OBSTRUCTIONS TO VISIBILITY.

* THESE STATIONS ARE NOT UNDER NWS QUALITY CONTROL. THEY DO NOT
   REPORT WEATHER SUCH AS PRECIPITATION OR FOG.

MTZ001>007-043-250100-
WEST OF THE DIVIDE
CITY           SKY/WX    TMP DP  RH WIND       PRES   REMARKS
KALISPELL      LGT SNOW  34  30  85 N7        29.54R VSB 1    WCI  28
MISSOULA       LGT RAIN  36  34  92 NW3       29.50S
BUTTE          LGT SNOW  30  25  82 W3        29.43F
MULLAN PASS    LGT SNOW  27  21  78 N8        29.48R VSB 1/2  WCI  19
* ESSEX        N/A       31  28  89 N/A        N/A
* HAMILTON APT CLOUDY    37  36  96 E2        29.47S
* LIBBY APT    CLOUDY    32  30  92 CALM      29.60R VSB M1/4
* LINCOLN      N/A       34  32  92 SE2        N/A
* LOOKOUT PASS N/A       28  27  96 N8         N/A   WCI  20
* POLSON       N/A       32  32 100 NW1        N/A
* RONAN APT    CLOUDY    34  30  85 N8         N/A   WCI  27
* SEELEY LAKE  N/A       34  33  96 N/A        N/A
* THOMP F APT  CLOUDY    22  18  85 E4G9       N/A
$$

MTZ008-052>055-250100-
SOUTHWEST MONTANA
CITY           SKY/WX    TMP DP  RH WIND       PRES   REMARKS
BOZEMAN        CLOUDY    36  25  64 CALM      29.43F
DILLON         CLOUDY    34  21  59 VRB3      29.44F
* W YELLOWSTON CLOUDY    21  19  92 W1G6       N/A
* THREE FORKS  CLOUDY    37  27  67 SW26G45    N/A   WCI  25
* BOULDER HILL N/A       31  21  66 SW11       N/A   WCI  22
* MONIDA PASS  N/A       20  20 100 SE18G24    N/A   WCI   5
* RAYNOLDS PAS N/A       22   5  48 S17        N/A   WCI   8
* WHITEHALL    N/A       39  20  46 SW15G28    N/A   WCI  31
* WISE RIVER   N/A       33  26  75 S4G16      N/A
$$

MTZ009>010-012-014-046-048-049-054-250100-
EAST SLOPES AND CENTRAL MONTANA
CITY           SKY/WX    TMP DP  RH WIND       PRES   REMARKS
CUT BANK       CLOUDY    30  28  92 W7        29.54S WCI  23
GREAT FALLS    LGT SNOW  30  30 100 N9        29.50R VSB 1/2  WCI  22
HELENA         SNOW      34  32  92 NW6       29.46S VSB 1/2  WCI  29
MALMSTROM AFB  LGT SNOW  32  32 100 N12       29.53R VSB 2 3/4 WCI  23
* CONRAD       CLOUDY    32  32 100 W7         N/A   WCI  25
* DEARBORN     N/A       32  32 100 VRB4G9     N/A
* EAST GLACIER N/A       26  24  92 NE8        N/A   WCI  18
* MONARCH      N/A       27  25  92 NW10       N/A   WCI  18
* PENDROY      N/A       29  28  96 N11        N/A   WCI  19
* ROGERS PASS  N/A       26  25  96 N/A        N/A
* SWEET GRASS  N/A       32  27  82 NW9        N/A   WCI  24
* WHITE SULPH  N/A       35  21  57 SW11G17    N/A   WCI  27
$$

MTZ011-013-016-021-035-040-045-047-050-051-250100-
NORTH CENTRAL MONTANA
CITY           SKY/WX    TMP DP  RH WIND       PRES   REMARKS
HAVRE          LGT RAIN  34  34 100 S6        29.54R WCI  29
LEWISTOWN      LGT SNOW  32  30  92 N8        29.46S WCI  25
* N BAR RANCH  FOG       30  30 100 CALM      29.47R VSB 1 3/4
* CHINOOK      CLOUDY    34  32  92 CALM      29.55R
* CHESTER      N/A       33  30  89 NW1        N/A
* DENTON       N/A       32  31  96 N7         N/A   WCI  25
* GEYSER       N/A       31  31 100 NE6        N/A   WCI  25
* JUDITH GAP   N/A       32  31  96 NW14G20    N/A   WCI  22
* LOMA         N/A       33  32  96 NW8        N/A   WCI  26
$$

MTZ017>020-022>027-061-062-250100-
NORTHEAST MONTANA
CITY           SKY/WX    TMP DP  RH WIND       PRES   REMARKS
GLASGOW        MOCLDY    34  28  79 N6        29.51S WCI  29
GLENDIVE       CLOUDY    36  32  85 NW7       29.50S WCI  30
JORDAN         CLOUDY    34  32  92 N3        29.50S
SIDNEY         CLOUDY    36  28  73 CALM      29.51R
WOLF POINT     CLOUDY    36  30  79 SW5       29.51S WCI  32
* BEAVER HILL  N/A       32  30  92 S4         N/A
* CIRCLE       N/A       35  32  89 N/A        N/A
* LINDSAY DVD  N/A       33  33 100 NW8        N/A   WCI  26
* NAVAJO       N/A       26  22  85 NW11       N/A   WCI  16
* PLENTYWOOD A CLEAR     23  19  85 NW7       29.47F WCI  15
* POPLAR APT   PTCLDY    32  30  92 N/A       29.51R
* SACO         N/A       35  29  79 SW3        N/A
$$

MTZ028>042-056>058-250100-
SOUTHCENTRAL AND SOUTHEAST MONTANA
CITY           SKY/WX    TMP DP  RH WIND       PRES   REMARKS
BAKER          CLOUDY    34  30  85 NW6       29.47S WCI  29
BILLINGS       CLOUDY    39  18  43 SW13      29.42S WCI  31
LIVINGSTON     CLOUDY    36  23  59 SW26G46   29.41S WCI  24
MILES CITY     LGT RAIN  36  30  79 N8        29.47F WCI  30
* BIG TIMBER A CLOUDY    37  21  52 W15G22    29.42F WCI  28
* FORSYTH APT  CLOUDY    37  34  89 N3        29.48R
* LAUREL APT   CLOUDY    39  16  39 S8         N/A   WCI  33
* ROUNDUP APT  CLOUDY    37  30  76 NE8        N/A   WCI  31
* ALZADA       N/A       36  27  70 W2         N/A
* HYSHAM       N/A       36  27  70 NE8G13     N/A   WCI  30
* LAME DEER    N/A       35  20  54 NE4        N/A
* REED POINT   N/A       38  21  50 N/A        N/A
* ROSCOE HILL  N/A       40  12  32 S22G30     N/A   WCI  30
$$

REGIONAL REPORTS...DAKOTAS
CITY           SKY/WX    TMP DP  RH WIND       PRES   REMARKS
WILLISTON      MOCLDY    30  25  82 N5        29.48R WCI  25
DICKINSON      CLOUDY    36  30  79 NW9       29.44F WCI  29
BEACH          CLOUDY    32  32 100 W7        29.49R WCI  25
CROSBY         CLEAR     25  25 100 W8        29.47S WCI  16
TIOGA          CLEAR     25  25 100 W9        29.48S WCI  16
WATFORD CITY   PTCLDY    32  28  85 W3        29.46R
BISMARCK       CLOUDY    30  28  92 E3        29.47S
GRAND FORKS    CLOUDY    27  25  92 S16       29.50F WCI  15
FARGO          FOG       28  25  89 N/A       29.54F
BUFFALO SD     MOCLDY    37  28  70 W8        29.40F WCI  31
RAPID CITY     CLOUDY    36  25  64 E5        29.46F WCI  32
$$

REGIONAL REPORTS...WYOMING/IDAHO/WASHINGTON
CITY           SKY/WX    TMP DP  RH WIND       PRES   REMARKS
GILLETTE       CLOUDY    37  23  57 SW20G28   29.44F WCI  27
SHERIDAN       CLOUDY    34  27  76 W3        29.42F
CODY           CLOUDY    28  19  69 CALM      29.46F
YELLOWSTONE LA CLOUDY    21  19  92 CALM      29.57F
SALMON         CLOUDY    30  27  89 CALM      29.49F VSB 1 1/4
MULLAN PASS    LGT SNOW  27  21  78 N8        29.48S VSB 1/2  WCI  19
SAND POINT     CLOUDY    34  34 100 N3        29.65R
SPOKANE        CLOUDY    37  34  89 NW5       29.66R WCI  33
$$

REGIONAL REPORTS...ALBERTA
CITY           SKY/WX    TMP DP  RH WIND       PRES   REMARKS
CALGARY        PTCLDY    27  14  58 N5        29.61R WCI  21
LETHBRIDGE     CLOUDY    30  27  89 N5        29.60R WCI  25
MEDICINE HAT   CLOUDY    32  27  82 NW3       29.59R
EDMONTON       CLOUDY    25  21  85 N10G17    29.67R WCI  15
WATERTON GATE  N/A       28  19  69 N9         N/A   WCI  19
CARDSTON       N/A       30  25  82 N8         N/A   WCI  22
MILK RIVER     N/A       30  28  92 N16        N/A   WCI  19
$$

REGIONAL REPORTS...SASKATCHEWAN
CITY           SKY/WX    TMP DP  RH WIND       PRES   REMARKS
SWIFT CURRENT  CLOUDY    21  19  92 W9        29.50R WCI  11
REGINA         MOCLDY    23  21  92 W12       29.44S WCI  11
VAL MARIE      N/A       32  27  82 N10        N/A   WCI  24
ASSINIBOIA     N/A       21  18  88 W10        N/A   WCI  10

$$




USA.gov is the U.S. government's official web portal to all federal, state and local government web resources and services.